Terminal Aerodrome Forecast
Issued by NWS

Home | Current Version | Previous Version | Text Only | Print | Product List | Glossary On
Versions: 1 2 3 4 5 6 7 8 9 10 11 12 13 14 15 16 17
000
FTUS43 KLSX 032300
TAFUIN
TAF
KUIN 032340Z 0400/0424 31009KT 5SM BR OVC015
     FM040300 34015G22KT P6SM OVC020
     FM041000 34015G22KT P6SM SCT015 BKN120=

USA.gov is the U.S. government's official web portal to all federal, state and local government web resources and services.